Location: Alsip
(41.6689°N, 87.7387°W)
Time: 14:59:36
(UTC+00:00)

Cosmos 1934 Rocket - Pass Details

Date: 14 July 2020
Orbit: 938 x 998 km, 83.0° (Epoch: 12 August)

Event Time Altitude Azimuth Distance (km) Brightness Sun altitude
Exits shadow 06:29:29 46° 249° (WSW) 1,289 4.4 -26.3°
Maximum altitude 06:30:36 51° 282° (WNW) 1,209 4.4 -26.3°
Drops below altitude 10° 06:36:43 10° 358° (N) 2,748 7.3 -26.1°
Sets 06:39:21 0° 3° (N) 3,708 8.4 -26.0°
